User: anonymous   Login
Location: Glendale
(37.4556°N, 88.6714°W)
Time: 12:56:27
(UTC+00:00)
Language:

BREEZE-M DEB (TANK) - Orbit

View from above orbital plane
View from above orbital plane
View from above satellite
View from above satellite

Ground track
Ground track

The orbit data is extracted from the following two-line orbital elements,

1 36501U 10010C   20051.80677091  .00001021  00000-0  27683-3 0  9996
2 36501  49.6319 143.3369 4878365 178.2438 184.5817  5.79635401207386
Epoch (UTC): 20 February 2020 19:21:45
Eccentricity: 0.4878365
inclination: 49.6319°
perigee height: 326 km
apogee height: 13098 km
right ascension of ascending node: 143.3369°
argument of perigee: 178.2438°
revolutions per day: 5.79635401
mean anomaly at epoch: 184.5817°
orbit number at epoch: 20738

The dashed part of the orbit path shows where the satellite is in the earth's shadow,  

DLR